Hourly Data Report for May 27, 2006

TORONTO CITY
ONTARIO

43°40'00.000" N
79°24'00.000" W
112.50 m
6158355
71508
XTO

Download Data

Hourly Data (May 2006)
Hourly Data Report for May 27, 2006
TIME
LST
Temp Definition
°C
Dew Point Definition
°C
Rel Hum Definition
%
Precip. Amount Definition
mm

Wind Dir Definition
10's deg

Wind Spd Definition
km/h
Visibility Definition
km
Stn Press Definition
kPa
Hmdx Definition


Wind Chill Definition


Weather Definition


00:00 17.3 15.5 89   LegendMM LegendMM   99.22     LegendNANA
01:00 16.4 15.1 92   LegendMM LegendMM   99.29     LegendNANA
02:00 16.2 15.1 93   LegendMM LegendMM   99.30     LegendNANA
03:00 15.4 14.3 93   LegendMM LegendMM   99.36     LegendNANA
04:00 15.1 13.9 93   LegendMM LegendMM   99.44     LegendNANA
05:00 15.0 13.6 91   LegendMM LegendMM   99.52     LegendNANA
06:00 15.3 13.5 89   LegendMM LegendMM   99.69     LegendNANA
07:00 16.0 13.4 85   LegendMM LegendMM   99.75     LegendNANA
08:00 17.4 13.9 80   LegendMM LegendMM   99.80     LegendNANA
09:00 19.0 14.2 74   LegendMM LegendMM   99.84     LegendNANA
10:00 20.4 14.7 70   LegendMM LegendMM   99.90     LegendNANA
11:00 22.3 16.2 68   LegendMM LegendMM   99.95 27   LegendNANA
12:00 23.1 15.2 61   LegendMM LegendMM   99.98 27   LegendNANA
13:00 22.6 15.2 63   LegendMM LegendMM   99.98 27   LegendNANA
14:00 24.3 13.4 51   LegendMM LegendMM   100.01 27   LegendNANA
15:00 22.9 14.9 61   LegendMM LegendMM   100.02 27   LegendNANA
16:00 21.7 14.7 64   LegendMM LegendMM   100.01 25   LegendNANA
17:00 20.9 14.2 66   LegendMM LegendMM   100.06     LegendNANA
18:00 21.1 14.2 65   LegendMM LegendMM   100.09 25   LegendNANA
19:00 20.4 14.1 67   LegendMM LegendMM   100.16     LegendNANA
20:00 19.4 13.8 70   LegendMM LegendMM   100.21     LegendNANA
21:00 18.7 14.5 77   LegendMM LegendMM   100.27     LegendNANA
22:00 18.4 14.0 76   LegendMM LegendMM   100.30     LegendNANA
23:00 17.6 14.1 80   LegendMM LegendMM   100.33     LegendNANA

Notes on Data Quality.

Legend

  • E = Estimated
  • M = Missing
  • NA = Not Available*
  • [empty] = Indicates an unobserved value
Date modified: